Weather in Khlebnikovo

Russia / Mari El Republic     56°38′53″N   49°56′20″E
temp.,
°C
wind,
m/s
gust,
m/s
humid.,
%
clouds,
%
prec.,
mm/h
press.,
hPa
HPBL,
m
28 february, sun
sun2800:00−18n489790 0.0 1006169
03:00−19n489785 0.1 1007177
06:00−20n499880 0.0 1008197
09:00−18n479573 0.1 1009253
12:00−15n479274 0.0 1010362
15:00−14n589186 0.0 1011458
18:00−18n489695 0.0 1014149
21:00−20n349981 0.0 101675
1 march, mon
mon100:00−21nnw349937 0.0 101858
03:00−23nnw339822 0.0 101939
06:00−24nnw33970 0.0 102129
09:00−20nnw22940 0.0 1021124
12:00−15wnw238734 0.0 1020289
15:00−13w248832 0.0 1019303
18:00−15ssw359746 0.0 101792
21:00−15ssw4109669 0.0 1015208
2 march, tue
tue200:00−13ssw61195100 0.0 1011289
03:00−11ssw71393100 0.4 1007397
06:00−9ssw71394100 0.7 1002461
09:00−6ssw71295100 1.4 999473
12:00−2ssw61096100 0.9 997488
15:000sw47100100 2.1 996416
18:000wnw3798100 1.0 996348
21:00−2nw51094100 2.1 996411
3 march, wed
wed300:00−4nnw4895100 0.0 997277
03:00−7nnw3695100 0.1 998123
06:00−8nw379799 0.0 999145
09:00−7nw489490 0.1 1001274
12:00−4nw699391 0.1 1002551
15:00−3nw599396 0.2 1003802
18:00−5nnw51192100 0.6 1005656
21:00−9nw4119267 0.6 1007253
4 march, thu
thu400:00−11wnw4109519 0.0 1008222
03:00−13w499730 0.0 1008155
06:00−13w389680 0.1 1009154
09:00−10wsw499489 0.1 1007290
12:00−6sw61188100 0.0 1004524
15:00−4sw81592100 0.4 1001840
18:00−2sw81595100 0.5 998775
21:000wsw81594100 1.2 9951013